Regional Weather Roundup
Issued by NWS

Home | Current Version | Previous Version | Graphics & Text | Print | Product List | Glossary On
Versions: 1 2 3 4 5 6 7 8 9 10 11 12 13 14 15 16 17 18 19 20 21 22 23 24 25 26 27 28 29 30 31 32 33 34 35 36 37 38 39 40 41 42 43 44 45 46 47 48 49 50
000
ASUS45 KABQ 300610
RWRNM
NEW MEXICO REGIONAL WEATHER ROUNDUP
NATIONAL WEATHER SERVICE ALBUQUERQUE NM
1200 AM MDT SUN AUG 30 2015

NOTE: "FAIR" MEANS FEW OR NO CLOUDS BELOW 12,000 FEET AGL WITH NO
       SIGNIFICANT WEATHER OR OBSTRUCTIONS TO VISION.

      THIS PRODUCT IS RELEASED AS TWO VERSIONS.  ONE VERSION NEAR
      THE TOP OF THE HOUR CONTAINING PRELIMINARY DATA FROM ALBUQUERQUE
      AND OTHER STATIONS.  A FINAL VERSION WITH ADDITIONAL DATA IS
      ISSUED ABOUT 10 MINUTES AFTER THE HOUR.

NMZ501-503-504-510>518-300700-
NORTHWEST PLATEAU/NORTHCENTRAL MOUNTAINS

CITY           SKY/WX    TMP DP  RH WIND       PRES   REMARKS
FARMINGTON     PTCLDY    76  44  32 E8        30.16S
6HR MIN TEMP:  72; 6HR MAX TEMP:  89;

LOS ALAMOS     PTCLDY    65  45  47 S8        30.39S
SANTA FE       CLEAR     65  48  54 E8        30.31S
6HR MIN TEMP:  61; 6HR MAX TEMP:  80;

TAOS           CLEAR     57  37  47 CALM      30.38S
ANGEL FIRE     FAIR      40  39  95 CALM      30.48F

$$
NMZ402-403-502-505>509-300700-
WESTCENTRAL MOUNTAINS/SOUTHWEST MOUNTAINS

CITY           SKY/WX    TMP DP  RH WIND       PRES   REMARKS
GALLUP         MOCLDY    68  46  45 S8        30.29S
6HR MIN TEMP:  67; 6HR MAX TEMP:  83;

GRANTS         PTCLDY    59  50  71 SE3       30.32F
SILVER CITY      N/A     64  57  77 SE23G31   30.27R

$$
NMZ407-409-411-412-300700-
SOUTHERN DESERTS

CITY           SKY/WX    TMP DP  RH WIND       PRES   REMARKS
LORDSBURG      FAIR      72  55  56 NE13G20   30.19
DEMING         CLOUDY    75  56  51 S6        30.16F
6HR MIN TEMP:  73; 6HR MAX TEMP:  91; 6HR PCP: TRACE;

LAS CRUCES     MOCLDY    75  54  48 E5        30.18S
HOLLOMAN AFB   CLEAR     74  56  53 N5        30.13S
ALAMOGORDO     CLEAR     70  59  68 NW5       30.16R
T OR C         MOCLDY    77  52  41 SW5       30.19F
6HR MIN TEMP:  77; 6HR MAX TEMP:  92;


$$
NMZ519>523-300700-
CENTRAL VALLEYS/CENTRAL HIGHLANDS

CITY           SKY/WX    TMP DP  RH WIND       PRES   REMARKS
ALBUQUERQUE    PTCLDY    73  48  41 E6        30.24R
6HR MIN TEMP:  72; 6HR MAX TEMP:  84;

DOUBLE EAGLE   CLEAR     61  46  57 S7        30.28R
MORIARTY ARPT  FAIR      54  47  77 CALM      30.34R
6HR MIN TEMP:  54; 6HR MAX TEMP:  81;

CLINES CORNERS CLEAR     58  52  80 S9        30.36S
6HR MIN TEMP:  58; 6HR MAX TEMP:  74;

BELEN          FAIR      71  50  47 S6        30.23R
6HR MIN TEMP:  71; 6HR MAX TEMP:  87;

SOCORRO        FAIR      71  52  49 S5        30.20S
6HR MIN TEMP:  71; 6HR MAX TEMP:  89;


$$
NMZ524>526-539-540-300700-
SOUTHCENTRAL MOUNTAINS

CITY           SKY/WX    TMP DP  RH WIND       PRES   REMARKS
RUIDOSO        PTCLDY    59  54  82 MISG      30.38S

$$
NMZ527>531-300700-
NORTHEAST HIGHLANDS/NORTHEAST PLAINS

CITY           SKY/WX    TMP DP  RH WIND       PRES   REMARKS
LAS VEGAS      CLEAR     57  48  72 CALM      30.37S
6HR MIN TEMP:  54; 6HR MAX TEMP:  76;

RATON          CLEAR     63  48  58 S6        30.32S
6HR MIN TEMP:  60; 6HR MAX TEMP:  75;

CLAYTON        CLEAR     65  47  52 S8        30.23S
6HR MIN TEMP:  61; 6HR MAX TEMP:  82;


$$
NMZ532>537-300700-
EASTCENTRAL PLAINS

CITY           SKY/WX    TMP DP  RH WIND       PRES   REMARKS
TUCUMCARI      CLEAR     66  56  70 W5        30.17S
6HR MIN TEMP:  65; 6HR MAX TEMP:  86;

CANNON AFB     CLEAR     64  55  71 N2        30.20R
6HR MIN TEMP:  64; 6HR MAX TEMP:  81;

CLOVIS AIRPORT CLEAR     63  55  77 E5        30.21S

$$
NMZ028-029-538-300700-
SOUTHEAST PLAINS

CITY           SKY/WX    TMP DP  RH WIND       PRES   REMARKS
ROSWELL        CLEAR     67  59  75 CALM      30.15S
6HR MIN TEMP:  67; 6HR MAX TEMP:  89; 6HR PCP: TRACE;

ARTESIA        CLEAR     70  63  78 S3        30.16R
CARLSBAD       NOT AVBL
HOBBS            N/A     64  63  94 CALM      30.16F


$$



USA.gov is the U.S. government's official web portal to all federal, state and local government web resources and services.